GTI6584 KBWI-KIAH

Flight info

Callsign GTI6584
Flight time 3h 11m
Altitude 36000
Route TERPZ8 MAULS Q40 AEX GESNR2
Aircraft B77L/H-SDE1E2E3FGHIJ2J3J4J5M1RWXYZ/L

Departure

Time 2026-05-07 13:23
Airport Baltimore/Washington International Thurgood Marshall Airport (KBWI)

Arrival

Time 2026-05-07 16:34
Airport George Bush Intercontinental Airport (KIAH)
Time Latitude Longitude Altitude Speed Heading
2026-05-07 13:01 39.18640 -76.66584 168 ft 0 kts 36°
2026-05-07 13:10 39.18622 -76.66602 167 ft 4 kts 46°
2026-05-07 13:10 39.18607 -76.66629 166 ft 4 kts 74°
2026-05-07 13:10 39.18607 -76.66656 167 ft 4 kts 141°
2026-05-07 13:11 39.18612 -76.66661 167 ft 2 kts 156°
2026-05-07 13:11 39.18611 -76.66661 167 ft 0 kts 156°
2026-05-07 13:14 39.18606 -76.66658 167 ft 3 kts 156°
2026-05-07 13:14 39.18574 -76.66639 165 ft 7 kts 153°
2026-05-07 13:15 39.18522 -76.66595 162 ft 10 kts 144°
2026-05-07 13:15 39.18466 -76.66543 161 ft 10 kts 144°
2026-05-07 13:15 39.18412 -76.66492 161 ft 10 kts 144°
2026-05-07 13:15 39.18357 -76.66441 161 ft 9 kts 141°
2026-05-07 13:16 39.18339 -76.66381 161 ft 7 kts 84°
2026-05-07 13:16 39.18331 -76.66322 161 ft 7 kts 118°
2026-05-07 13:16 39.18293 -76.66273 161 ft 10 kts 143°
2026-05-07 13:16 39.18226 -76.66211 161 ft 12 kts 144°
2026-05-07 13:17 39.18160 -76.66150 160 ft 12 kts 144°
2026-05-07 13:17 39.18092 -76.66090 160 ft 11 kts 147°
2026-05-07 13:17 39.18026 -76.66037 158 ft 12 kts 148°
2026-05-07 13:17 39.17951 -76.65977 153 ft 14 kts 148°
2026-05-07 13:18 39.17871 -76.65913 152 ft 13 kts 148°
2026-05-07 13:18 39.17797 -76.65854 152 ft 13 kts 148°
2026-05-07 13:18 39.17722 -76.65793 151 ft 13 kts 148°
2026-05-07 13:18 39.17655 -76.65739 151 ft 11 kts 148°
2026-05-07 13:19 39.17585 -76.65683 148 ft 11 kts 147°
2026-05-07 13:19 39.17517 -76.65660 147 ft 9 kts 179°
2026-05-07 13:19 39.17457 -76.65658 147 ft 9 kts 165°
2026-05-07 13:19 39.17429 -76.65616 147 ft 5 kts 109°
2026-05-07 13:20 39.17417 -76.65572 147 ft 6 kts 111°
2026-05-07 13:20 39.17381 -76.65532 146 ft 8 kts 163°
2026-05-07 13:20 39.17323 -76.65518 145 ft 10 kts 162°
2026-05-07 13:20 39.17282 -76.65492 145 ft 10 kts 150°
2026-05-07 13:21 39.17217 -76.65442 143 ft 12 kts 148°
2026-05-07 13:21 39.17168 -76.65360 140 ft 12 kts 99°
2026-05-07 13:21 39.17207 -76.65292 138 ft 10 kts 16°
2026-05-07 13:21 39.17261 -76.65323 139 ft 8 kts 298°
2026-05-07 13:22 39.17268 -76.65361 141 ft 0 kts 277°
2026-05-07 13:22 39.17269 -76.65366 141 ft 2 kts 277°
2026-05-07 13:22 39.17275 -76.65452 144 ft 26 kts 275°
2026-05-07 13:22 39.17308 -76.66029 150 ft 102 kts 274°
2026-05-07 13:23 39.17378 -76.67237 160 ft 164 kts 274°
2026-05-07 13:23 39.17472 -76.68764 646 ft 174 kts 276°
2026-05-07 13:23 39.17559 -76.70319 1402 ft 175 kts 277°
2026-05-07 13:23 39.17633 -76.71908 1983 ft 185 kts 278°
2026-05-07 13:24 39.17729 -76.73667 2333 ft 210 kts 279°
2026-05-07 13:24 39.17838 -76.75671 2642 ft 235 kts 281°
2026-05-07 13:24 39.18156 -76.77747 3386 ft 238 kts 289°
2026-05-07 13:24 39.18584 -76.79816 4305 ft 240 kts 288°
2026-05-07 13:25 39.19017 -76.81898 5306 ft 240 kts 286°
2026-05-07 13:25 39.19441 -76.83975 6140 ft 245 kts 283°
2026-05-07 13:25 39.19873 -76.86125 6954 ft 249 kts 282°
2026-05-07 13:25 39.20294 -76.88257 7980 ft 243 kts 281°
2026-05-07 13:26 39.20708 -76.90370 8896 ft 244 kts 280°
2026-05-07 13:26 39.21123 -76.92499 9765 ft 246 kts 279°
2026-05-07 13:26 39.21540 -76.94653 10485 ft 252 kts 278°
2026-05-07 13:26 39.21966 -76.96947 10769 ft 274 kts 276°
2026-05-07 13:27 39.22130 -76.99485 10972 ft 296 kts 268°
2026-05-07 13:27 39.22127 -77.02246 11271 ft 317 kts 267°
2026-05-07 13:27 39.22133 -77.05126 12048 ft 324 kts 268°
2026-05-07 13:27 39.22161 -77.08048 13021 ft 325 kts 268°
2026-05-07 13:28 39.21905 -77.10922 13806 ft 326 kts 252°
2026-05-07 13:28 39.20911 -77.13563 14639 ft 330 kts 240°
2026-05-07 13:28 39.19545 -77.15945 15643 ft 331 kts 232°
2026-05-07 13:28 39.17728 -77.17827 16555 ft 341 kts 219°
2026-05-07 13:29 39.15687 -77.19414 17383 ft 344 kts 219°
2026-05-07 13:29 39.13649 -77.21049 18223 ft 346 kts 220°
2026-05-07 13:29 39.11619 -77.22717 18986 ft 347 kts 220°
2026-05-07 13:29 39.09605 -77.24385 19644 ft 350 kts 220°
2026-05-07 13:30 39.07516 -77.26021 20419 ft 353 kts 218°
2026-05-07 13:30 39.05355 -77.27550 21163 ft 355 kts 217°
2026-05-07 13:30 39.03164 -77.29056 21833 ft 359 kts 217°
2026-05-07 13:30 39.00951 -77.30573 22482 ft 362 kts 217°
2026-05-07 13:31 38.98722 -77.32109 23173 ft 364 kts 217°
2026-05-07 13:31 38.96485 -77.33658 23788 ft 366 kts 218°
2026-05-07 13:31 38.94238 -77.35225 24337 ft 368 kts 218°
2026-05-07 13:31 38.91983 -77.36800 24900 ft 370 kts 218°
2026-05-07 13:32 38.89709 -77.38386 25440 ft 373 kts 218°
2026-05-07 13:32 38.87424 -77.39979 25908 ft 376 kts 218°
2026-05-07 13:32 38.85119 -77.41583 26432 ft 378 kts 218°
2026-05-07 13:32 38.82789 -77.43203 26965 ft 380 kts 218°
2026-05-07 13:33 38.80490 -77.44801 27513 ft 382 kts 218°
2026-05-07 13:33 38.78144 -77.46431 28014 ft 384 kts 219°
2026-05-07 13:33 38.75785 -77.48070 28506 ft 387 kts 219°
2026-05-07 13:33 38.73482 -77.49815 28952 ft 381 kts 225°
2026-05-07 13:34 38.71527 -77.52033 29380 ft 370 kts 234°
2026-05-07 13:34 38.68149 -77.57085 30059 ft 375 kts 234°
2026-05-07 13:34 38.66412 -77.59620 30355 ft 379 kts 233°
2026-05-07 13:35 38.64672 -77.62135 30935 ft 375 kts 234°
2026-05-07 13:35 38.62951 -77.64615 31508 ft 371 kts 234°
2026-05-07 13:35 38.61257 -77.67061 31918 ft 371 kts 234°
2026-05-07 13:35 38.59543 -77.69534 32261 ft 372 kts 234°
2026-05-07 13:36 38.57818 -77.72024 32583 ft 373 kts 234°
2026-05-07 13:36 38.56096 -77.74507 32927 ft 374 kts 234°
2026-05-07 13:36 38.54365 -77.77000 33255 ft 374 kts 234°
2026-05-07 13:36 38.52636 -77.79486 33566 ft 374 kts 234°
2026-05-07 13:37 38.50892 -77.81961 33909 ft 374 kts 234°
2026-05-07 13:37 38.49138 -77.84423 34187 ft 375 kts 234°
2026-05-07 13:37 38.47378 -77.86893 34244 ft 379 kts 235°
2026-05-07 13:37 38.45620 -77.89363 34371 ft 381 kts 235°
2026-05-07 13:38 38.43901 -77.91918 34675 ft 376 kts 238°
2026-05-07 13:38 38.42355 -77.94598 34979 ft 373 kts 240°
2026-05-07 13:38 38.40884 -77.97314 35306 ft 371 kts 241°
2026-05-07 13:38 38.39432 -78.00024 35624 ft 369 kts 241°
2026-05-07 13:39 38.37979 -78.02716 35856 ft 369 kts 241°
2026-05-07 13:39 38.35018 -78.08127 35976 ft 373 kts 240°
2026-05-07 13:40 38.32035 -78.13501 35986 ft 368 kts 240°
2026-05-07 13:40 38.29089 -78.18787 35918 ft 365 kts 240°
2026-05-07 13:41 38.26173 -78.24014 35974 ft 365 kts 240°
2026-05-07 13:41 38.23223 -78.29295 35986 ft 367 kts 240°
2026-05-07 13:42 38.20249 -78.34612 35984 ft 370 kts 240°
2026-05-07 13:42 38.17366 -78.40034 35976 ft 368 kts 246°
2026-05-07 13:43 38.15483 -78.46031 35982 ft 366 kts 251°
2026-05-07 13:43 38.13634 -78.52040 35987 ft 367 kts 250°
2026-05-07 13:44 38.11748 -78.58091 35978 ft 368 kts 250°
2026-05-07 13:44 38.09857 -78.64130 35936 ft 368 kts 250°
2026-05-07 13:45 38.07962 -78.70166 36003 ft 368 kts 250°
2026-05-07 13:45 38.06066 -78.76193 35991 ft 367 kts 250°
2026-05-07 13:46 38.04172 -78.82198 35986 ft 366 kts 250°
2026-05-07 13:46 38.02294 -78.88142 35980 ft 364 kts 250°
2026-05-07 13:47 38.00405 -78.94109 35974 ft 365 kts 250°
2026-05-07 13:47 37.98510 -79.00085 35969 ft 365 kts 250°
2026-05-07 13:48 37.96611 -79.06057 36014 ft 365 kts 250°
2026-05-07 13:48 37.94711 -79.12028 35999 ft 365 kts 250°
2026-05-07 13:49 37.92803 -79.18000 36009 ft 366 kts 250°
2026-05-07 13:49 37.90900 -79.23962 36038 ft 364 kts 250°
2026-05-07 13:50 37.89007 -79.29870 36065 ft 363 kts 250°
2026-05-07 13:50 37.86795 -79.35630 36097 ft 366 kts 242°
2026-05-07 13:51 37.84019 -79.41038 36111 ft 367 kts 242°
2026-05-07 13:51 37.81231 -79.46452 36106 ft 367 kts 242°
2026-05-07 13:52 37.78463 -79.51872 36099 ft 366 kts 242°
2026-05-07 13:52 37.75711 -79.57281 36076 ft 365 kts 242°
2026-05-07 13:53 37.72986 -79.62637 35963 ft 364 kts 242°
2026-05-07 13:53 37.70246 -79.68020 36019 ft 364 kts 242°
2026-05-07 13:54 37.67481 -79.73447 35955 ft 368 kts 242°
2026-05-07 13:54 37.64724 -79.78852 35971 ft 369 kts 242°
2026-05-07 13:55 37.61928 -79.84322 35976 ft 370 kts 242°
2026-05-07 13:55 37.59125 -79.89789 35966 ft 371 kts 242°
2026-05-07 13:56 37.56316 -79.95261 35963 ft 371 kts 242°
2026-05-07 13:56 37.53504 -80.00725 35970 ft 371 kts 242°
2026-05-07 13:57 37.50696 -80.06180 35983 ft 370 kts 242°
2026-05-07 13:57 37.47888 -80.11624 35969 ft 371 kts 242°
2026-05-07 13:58 37.45098 -80.17021 35996 ft 371 kts 242°
2026-05-07 13:58 37.42287 -80.22455 35997 ft 370 kts 242°
2026-05-07 13:59 37.39470 -80.27889 35967 ft 370 kts 242°
2026-05-07 13:59 37.36660 -80.33299 35992 ft 369 kts 242°
2026-05-07 14:00 37.33848 -80.38718 35965 ft 371 kts 242°
2026-05-07 14:00 37.31024 -80.44140 35946 ft 370 kts 242°
2026-05-07 14:01 37.28199 -80.49558 35966 ft 371 kts 242°
2026-05-07 14:01 37.25449 -80.55035 36018 ft 370 kts 244°
2026-05-07 14:02 37.22807 -80.60594 35996 ft 371 kts 244°
2026-05-07 14:02 37.20159 -80.66153 35975 ft 370 kts 244°
2026-05-07 14:03 37.17523 -80.71648 35984 ft 369 kts 244°
2026-05-07 14:03 37.14867 -80.77158 35979 ft 369 kts 243°
2026-05-07 14:04 37.12207 -80.82666 35983 ft 369 kts 243°
2026-05-07 14:04 37.09544 -80.88170 35962 ft 369 kts 244°
2026-05-07 14:05 37.06877 -80.93672 35972 ft 370 kts 244°
2026-05-07 14:05 37.04194 -80.99200 35959 ft 372 kts 243°
2026-05-07 14:06 37.01502 -81.04736 35968 ft 372 kts 243°
2026-05-07 14:06 36.98822 -81.10237 35971 ft 373 kts 243°
2026-05-07 14:07 36.96119 -81.15776 35989 ft 373 kts 243°
2026-05-07 14:07 36.93869 -81.20379 35998 ft 372 kts 243°
2026-05-07 14:08 36.91164 -81.25907 35963 ft 372 kts 243°
2026-05-07 14:08 36.88466 -81.31412 36012 ft 371 kts 243°
2026-05-07 14:09 36.85769 -81.36909 35995 ft 371 kts 243°
2026-05-07 14:09 36.83078 -81.42379 36010 ft 371 kts 243°
2026-05-07 14:10 36.80370 -81.47876 35978 ft 371 kts 243°
2026-05-07 14:10 36.77668 -81.53355 35991 ft 370 kts 243°
2026-05-07 14:11 36.74955 -81.58849 35934 ft 372 kts 243°
2026-05-07 14:11 36.72246 -81.64297 35937 ft 372 kts 243°
2026-05-07 14:12 36.69455 -81.69746 35902 ft 372 kts 242°
2026-05-07 14:12 36.66663 -81.75164 35957 ft 371 kts 242°
2026-05-07 14:13 36.63873 -81.80587 35968 ft 372 kts 242°
2026-05-07 14:13 36.61081 -81.86009 35977 ft 372 kts 242°
2026-05-07 14:14 36.58288 -81.91431 35981 ft 372 kts 242°
2026-05-07 14:14 36.55505 -81.96823 35934 ft 372 kts 242°
2026-05-07 14:15 36.52706 -82.02240 35945 ft 372 kts 242°
2026-05-07 14:15 36.49903 -82.07655 35951 ft 372 kts 242°
2026-05-07 14:16 36.47103 -82.13053 35936 ft 370 kts 242°
2026-05-07 14:16 36.44306 -82.18439 35967 ft 371 kts 242°
2026-05-07 14:17 36.41506 -82.23824 35979 ft 372 kts 242°
2026-05-07 14:17 36.38695 -82.29220 35984 ft 372 kts 242°
2026-05-07 14:18 36.35881 -82.34614 35971 ft 372 kts 242°
2026-05-07 14:18 36.33081 -82.39971 35992 ft 372 kts 242°
2026-05-07 14:19 36.30255 -82.45369 35973 ft 373 kts 242°
2026-05-07 14:19 36.27432 -82.50754 35944 ft 372 kts 242°
2026-05-07 14:20 36.24610 -82.56127 35955 ft 371 kts 242°
2026-05-07 14:20 36.21789 -82.61493 35963 ft 372 kts 242°
2026-05-07 14:21 36.18962 -82.66860 35978 ft 372 kts 242°
2026-05-07 14:21 36.16130 -82.72228 35982 ft 373 kts 242°
2026-05-07 14:22 36.13306 -82.77573 35982 ft 373 kts 242°
2026-05-07 14:22 36.10466 -82.82939 35985 ft 373 kts 242°
2026-05-07 14:23 36.07622 -82.88305 35974 ft 373 kts 242°
2026-05-07 14:23 36.04773 -82.93671 35968 ft 373 kts 242°
2026-05-07 14:24 36.01927 -82.99025 35960 ft 372 kts 242°
2026-05-07 14:24 35.99090 -83.04353 35962 ft 373 kts 242°
2026-05-07 14:25 35.96225 -83.09729 35962 ft 375 kts 242°
2026-05-07 14:25 35.93353 -83.15106 35963 ft 375 kts 242°
2026-05-07 14:26 35.90521 -83.20481 35977 ft 374 kts 243°
2026-05-07 14:26 35.87827 -83.25978 35960 ft 374 kts 243°
2026-05-07 14:27 35.85153 -83.31455 35969 ft 372 kts 243°
2026-05-07 14:27 35.82462 -83.36920 35952 ft 373 kts 243°
2026-05-07 14:28 35.79767 -83.42368 35972 ft 372 kts 243°
2026-05-07 14:28 35.77068 -83.47816 36004 ft 373 kts 243°
2026-05-07 14:29 35.74376 -83.53238 36003 ft 373 kts 243°
2026-05-07 14:29 35.71573 -83.58630 36001 ft 374 kts 241°
2026-05-07 14:30 35.68665 -83.63956 35998 ft 375 kts 241°
2026-05-07 14:30 35.65756 -83.69281 35983 ft 374 kts 241°
2026-05-07 14:31 35.62860 -83.74600 35975 ft 373 kts 241°
2026-05-07 14:31 35.59976 -83.79894 35981 ft 372 kts 241°
2026-05-07 14:32 35.57100 -83.85180 35969 ft 371 kts 241°
2026-05-07 14:32 35.54228 -83.90459 35973 ft 372 kts 241°
2026-05-07 14:33 35.51363 -83.95715 35993 ft 374 kts 241°
2026-05-07 14:33 35.48459 -84.01034 35970 ft 375 kts 241°
2026-05-07 14:34 35.45560 -84.06351 35985 ft 375 kts 241°
2026-05-07 14:34 35.42649 -84.11673 35981 ft 376 kts 241°
2026-05-07 14:35 35.39729 -84.16990 35972 ft 375 kts 241°
2026-05-07 14:35 35.36829 -84.22262 35978 ft 375 kts 241°
2026-05-07 14:36 35.33915 -84.27552 35971 ft 373 kts 241°
2026-05-07 14:36 35.31005 -84.32831 35985 ft 375 kts 241°
2026-05-07 14:37 35.28080 -84.38127 36011 ft 376 kts 241°
2026-05-07 14:37 35.23675 -84.46088 36018 ft 377 kts 241°
2026-05-07 14:38 35.20727 -84.51409 36013 ft 378 kts 240°
2026-05-07 14:38 35.17770 -84.56734 35989 ft 378 kts 240°
2026-05-07 14:39 35.14829 -84.62025 35985 ft 378 kts 240°
2026-05-07 14:39 35.11870 -84.67341 35974 ft 378 kts 240°
2026-05-07 14:40 35.08907 -84.72655 35985 ft 379 kts 240°
2026-05-07 14:40 35.05938 -84.77971 35992 ft 379 kts 240°
2026-05-07 14:41 35.02962 -84.83293 35991 ft 379 kts 240°
2026-05-07 14:41 34.99985 -84.88609 35996 ft 380 kts 240°
2026-05-07 14:42 34.97021 -84.93897 36005 ft 380 kts 240°
2026-05-07 14:42 34.94033 -84.99216 36006 ft 380 kts 240°
2026-05-07 14:43 34.91048 -85.04521 36004 ft 379 kts 240°
2026-05-07 14:43 34.88062 -85.09821 35976 ft 379 kts 240°
2026-05-07 14:44 34.85081 -85.15105 36008 ft 379 kts 240°
2026-05-07 14:44 34.82087 -85.20405 36002 ft 380 kts 240°
2026-05-07 14:45 34.79084 -85.25713 35999 ft 381 kts 240°
2026-05-07 14:45 34.76083 -85.31002 35995 ft 382 kts 239°
2026-05-07 14:46 34.73050 -85.36334 35986 ft 384 kts 239°
2026-05-07 14:46 34.70005 -85.41683 35984 ft 385 kts 239°
2026-05-07 14:47 34.66953 -85.47033 35978 ft 384 kts 239°
2026-05-07 14:47 34.63934 -85.52319 35956 ft 382 kts 239°
2026-05-07 14:48 34.60906 -85.57615 35977 ft 381 kts 239°
2026-05-07 14:48 34.57878 -85.62904 35991 ft 381 kts 239°
2026-05-07 14:49 34.54846 -85.68192 35987 ft 382 kts 239°
2026-05-07 14:49 34.51808 -85.73483 35993 ft 382 kts 239°
2026-05-07 14:50 34.48765 -85.78776 35994 ft 383 kts 239°
2026-05-07 14:50 34.45710 -85.84079 35990 ft 384 kts 239°
2026-05-07 14:51 34.42648 -85.89388 35998 ft 384 kts 239°
2026-05-07 14:51 34.39599 -85.94666 35950 ft 385 kts 239°
2026-05-07 14:52 34.36518 -85.99992 35983 ft 387 kts 239°
2026-05-07 14:52 34.33410 -86.05358 35999 ft 390 kts 239°
2026-05-07 14:53 34.30282 -86.10748 36000 ft 392 kts 239°
2026-05-07 14:53 34.27160 -86.16119 35998 ft 393 kts 239°
2026-05-07 14:54 34.24013 -86.21526 36003 ft 393 kts 239°
2026-05-07 14:54 34.21380 -86.26042 36027 ft 391 kts 239°
2026-05-07 14:55 34.18268 -86.31375 36024 ft 390 kts 239°
2026-05-07 14:55 34.15150 -86.36710 35990 ft 388 kts 239°
2026-05-07 14:56 34.12035 -86.42034 36015 ft 388 kts 239°
2026-05-07 14:56 34.08912 -86.47366 36017 ft 390 kts 238°
2026-05-07 14:57 34.05770 -86.52719 36015 ft 392 kts 238°
2026-05-07 14:57 34.02617 -86.58090 36026 ft 393 kts 239°
2026-05-07 14:58 33.99453 -86.63477 36024 ft 395 kts 238°
2026-05-07 14:58 33.96274 -86.68883 36009 ft 395 kts 238°
2026-05-07 14:59 33.93100 -86.74272 36008 ft 393 kts 238°
2026-05-07 14:59 33.89944 -86.79622 35985 ft 391 kts 238°
2026-05-07 15:00 33.86795 -86.84957 36014 ft 391 kts 238°
2026-05-07 15:00 33.83654 -86.90268 36022 ft 392 kts 238°
2026-05-07 15:01 33.80481 -86.95626 36032 ft 394 kts 238°
2026-05-07 15:01 33.77288 -87.01010 36013 ft 396 kts 238°
2026-05-07 15:02 33.74084 -87.06402 36000 ft 396 kts 238°
2026-05-07 15:02 33.70884 -87.11780 35989 ft 395 kts 238°
2026-05-07 15:03 33.67694 -87.17134 35991 ft 393 kts 238°
2026-05-07 15:03 33.64505 -87.22478 35949 ft 393 kts 238°
2026-05-07 15:04 33.61342 -87.27773 35983 ft 394 kts 238°
2026-05-07 15:04 33.58142 -87.33122 36002 ft 396 kts 238°
2026-05-07 15:05 33.54925 -87.38490 35995 ft 397 kts 238°
2026-05-07 15:05 33.51698 -87.43868 36000 ft 398 kts 238°
2026-05-07 15:06 33.48460 -87.49255 35995 ft 398 kts 238°
2026-05-07 15:06 33.45222 -87.54637 35996 ft 398 kts 238°
2026-05-07 15:07 33.41985 -87.60007 36003 ft 397 kts 238°
2026-05-07 15:07 33.39021 -87.65495 36010 ft 393 kts 244°
2026-05-07 15:08 33.36531 -87.71312 36029 ft 393 kts 245°
2026-05-07 15:08 33.34022 -87.77111 35999 ft 392 kts 245°
2026-05-07 15:09 33.31511 -87.82895 35999 ft 391 kts 245°
2026-05-07 15:09 33.29008 -87.88650 36008 ft 389 kts 245°
2026-05-07 15:10 33.26505 -87.94397 36012 ft 389 kts 245°
2026-05-07 15:10 33.24021 -88.00092 35978 ft 389 kts 245°
2026-05-07 15:11 33.21520 -88.05817 35989 ft 389 kts 245°
2026-05-07 15:11 33.19015 -88.11544 36003 ft 389 kts 245°
2026-05-07 15:12 33.16507 -88.17268 36004 ft 389 kts 245°
2026-05-07 15:12 33.13997 -88.22988 35918 ft 389 kts 245°
2026-05-07 15:13 33.11477 -88.28720 35962 ft 390 kts 245°
2026-05-07 15:13 33.08965 -88.34425 35976 ft 392 kts 245°
2026-05-07 15:14 33.06421 -88.40195 35978 ft 393 kts 245°
2026-05-07 15:14 33.03864 -88.45985 35952 ft 395 kts 245°
2026-05-07 15:15 33.01299 -88.51779 35980 ft 395 kts 245°
2026-05-07 15:15 32.98732 -88.57571 35999 ft 395 kts 244°
2026-05-07 15:16 32.96167 -88.63350 36015 ft 394 kts 244°
2026-05-07 15:16 32.93617 -88.69086 36030 ft 393 kts 244°
2026-05-07 15:17 32.91051 -88.74849 36071 ft 392 kts 244°
2026-05-07 15:17 32.88493 -88.80585 36099 ft 391 kts 244°
2026-05-07 15:18 32.85958 -88.86260 36098 ft 391 kts 244°
2026-05-07 15:18 32.83396 -88.91988 36094 ft 393 kts 244°
2026-05-07 15:19 32.80823 -88.97729 36078 ft 394 kts 244°
2026-05-07 15:19 32.78241 -89.03483 36055 ft 395 kts 244°
2026-05-07 15:20 32.75650 -89.09246 36083 ft 396 kts 244°
2026-05-07 15:20 32.73048 -89.15026 36085 ft 396 kts 244°
2026-05-07 15:21 32.70445 -89.20796 36065 ft 396 kts 244°
2026-05-07 15:21 32.67839 -89.26567 36057 ft 396 kts 244°
2026-05-07 15:22 32.65247 -89.32299 36021 ft 396 kts 244°
2026-05-07 15:22 32.62654 -89.38057 35995 ft 395 kts 245°
2026-05-07 15:23 32.60256 -89.43917 35987 ft 393 kts 246°
2026-05-07 15:23 32.57915 -89.49790 35979 ft 394 kts 246°
2026-05-07 15:24 32.55553 -89.55663 36006 ft 395 kts 246°
2026-05-07 15:24 32.53171 -89.61534 36004 ft 396 kts 246°
2026-05-07 15:25 32.50791 -89.67374 36018 ft 396 kts 246°
2026-05-07 15:25 32.48391 -89.73251 36035 ft 397 kts 246°
2026-05-07 15:26 32.45983 -89.79133 36035 ft 397 kts 246°
2026-05-07 15:26 32.43572 -89.85018 36036 ft 397 kts 246°
2026-05-07 15:27 32.41156 -89.90902 36034 ft 397 kts 246°
2026-05-07 15:27 32.38736 -89.96788 36047 ft 397 kts 246°
2026-05-07 15:28 32.36317 -90.02663 36102 ft 397 kts 246°
2026-05-07 15:28 32.33895 -90.08533 36067 ft 396 kts 246°
2026-05-07 15:29 32.31474 -90.14391 36086 ft 396 kts 246°
2026-05-07 15:29 32.29066 -90.20210 36100 ft 396 kts 246°
2026-05-07 15:30 32.26640 -90.26064 36105 ft 397 kts 246°
2026-05-07 15:30 32.24206 -90.31922 36107 ft 397 kts 246°
2026-05-07 15:31 32.21771 -90.37777 36103 ft 397 kts 246°
2026-05-07 15:31 32.19329 -90.43639 36100 ft 398 kts 246°
2026-05-07 15:32 32.16882 -90.49505 36097 ft 398 kts 246°
2026-05-07 15:32 32.14436 -90.55356 36089 ft 398 kts 246°
2026-05-07 15:33 32.12003 -90.61167 36088 ft 397 kts 246°
2026-05-07 15:33 32.09549 -90.67017 36089 ft 397 kts 246°
2026-05-07 15:34 32.07099 -90.72852 36044 ft 397 kts 245°
2026-05-07 15:34 32.04648 -90.78679 36097 ft 397 kts 245°
2026-05-07 15:35 32.02185 -90.84524 36093 ft 398 kts 245°
2026-05-07 15:35 31.99717 -90.90370 36089 ft 399 kts 245°
2026-05-07 15:36 31.97242 -90.96224 36092 ft 399 kts 245°
2026-05-07 15:36 31.94760 -91.02085 36087 ft 399 kts 245°
2026-05-07 15:37 31.92293 -91.07904 36097 ft 399 kts 245°
2026-05-07 15:37 31.89807 -91.13759 36097 ft 399 kts 245°
2026-05-07 15:38 31.87279 -91.19582 36098 ft 400 kts 244°
2026-05-07 15:38 31.84606 -91.25315 36099 ft 399 kts 243°
2026-05-07 15:39 31.81919 -91.31032 36101 ft 399 kts 243°
2026-05-07 15:39 31.79247 -91.36747 36101 ft 399 kts 243°
2026-05-07 15:40 31.76600 -91.42425 36093 ft 398 kts 243°
2026-05-07 15:40 31.73935 -91.48137 36102 ft 399 kts 243°
2026-05-07 15:41 31.71264 -91.53858 36108 ft 400 kts 243°
2026-05-07 15:41 31.68586 -91.59582 36103 ft 400 kts 243°
2026-05-07 15:42 31.66351 -91.64352 36100 ft 400 kts 243°
2026-05-07 15:42 31.63228 -91.71008 36107 ft 400 kts 243°
2026-05-07 15:43 31.60975 -91.75804 36100 ft 400 kts 243°
2026-05-07 15:43 31.58298 -91.81492 36100 ft 400 kts 243°
2026-05-07 15:44 31.55598 -91.87221 36103 ft 400 kts 243°
2026-05-07 15:44 31.52903 -91.92932 36118 ft 400 kts 243°
2026-05-07 15:45 31.50207 -91.98637 36059 ft 400 kts 243°
2026-05-07 15:45 31.47511 -92.04330 36087 ft 400 kts 243°
2026-05-07 15:46 31.43461 -92.12871 36091 ft 400 kts 243°
2026-05-07 15:47 31.40770 -92.18534 36087 ft 401 kts 243°
2026-05-07 15:47 31.38055 -92.24238 36087 ft 402 kts 242°
2026-05-07 15:48 31.35333 -92.29951 36113 ft 402 kts 243°
2026-05-07 15:48 31.32607 -92.35661 36095 ft 402 kts 243°
2026-05-07 15:49 31.29878 -92.41372 36109 ft 402 kts 242°
2026-05-07 15:49 31.27152 -92.47067 36110 ft 401 kts 242°
2026-05-07 15:50 31.24574 -92.52845 36112 ft 400 kts 247°
2026-05-07 15:50 31.22485 -92.58859 36111 ft 399 kts 249°
2026-05-07 15:51 31.20469 -92.64854 36106 ft 399 kts 248°
2026-05-07 15:51 31.18388 -92.70890 36122 ft 401 kts 248°
2026-05-07 15:51 31.17329 -92.73920 35906 ft 405 kts 248°
2026-05-07 15:52 31.16261 -92.76959 35572 ft 402 kts 248°
2026-05-07 15:52 31.15207 -92.79948 35268 ft 395 kts 248°
2026-05-07 15:52 31.14164 -92.82901 34959 ft 390 kts 248°
2026-05-07 15:52 31.13132 -92.85818 34651 ft 387 kts 248°
2026-05-07 15:53 31.12106 -92.88717 34355 ft 385 kts 248°
2026-05-07 15:53 31.11084 -92.91603 34042 ft 384 kts 248°
2026-05-07 15:53 31.10066 -92.94477 33702 ft 383 kts 248°
2026-05-07 15:53 31.09050 -92.97340 33378 ft 381 kts 248°
2026-05-07 15:54 31.08036 -93.00198 33039 ft 380 kts 248°
2026-05-07 15:54 31.07025 -93.03045 32712 ft 379 kts 248°
2026-05-07 15:54 31.06017 -93.05879 32381 ft 378 kts 248°
2026-05-07 15:54 31.05009 -93.08712 32072 ft 377 kts 248°
2026-05-07 15:55 31.04004 -93.11535 31747 ft 376 kts 248°
2026-05-07 15:55 31.03001 -93.14348 31430 ft 375 kts 248°
2026-05-07 15:55 31.02016 -93.17110 31119 ft 374 kts 248°
2026-05-07 15:55 31.01017 -93.19907 30816 ft 373 kts 248°
2026-05-07 15:56 31.00022 -93.22694 30490 ft 372 kts 248°
2026-05-07 15:56 30.99027 -93.25475 30163 ft 371 kts 248°
2026-05-07 15:56 30.98034 -93.28251 29788 ft 370 kts 248°
2026-05-07 15:56 30.97043 -93.31018 29413 ft 369 kts 248°
2026-05-07 15:57 30.96056 -93.33772 29041 ft 367 kts 248°
2026-05-07 15:57 30.95073 -93.36513 28658 ft 366 kts 248°
2026-05-07 15:57 30.94094 -93.39240 28297 ft 363 kts 248°
2026-05-07 15:57 30.93120 -93.41952 27961 ft 361 kts 248°
2026-05-07 15:58 30.92163 -93.44612 27609 ft 359 kts 248°
2026-05-07 15:58 30.91202 -93.47283 27252 ft 357 kts 248°
2026-05-07 15:58 30.90245 -93.49941 26885 ft 355 kts 248°
2026-05-07 15:58 30.89286 -93.52603 26545 ft 354 kts 248°
2026-05-07 15:59 30.88334 -93.55243 26204 ft 353 kts 248°
2026-05-07 15:59 30.87384 -93.57876 25892 ft 351 kts 248°
2026-05-07 15:59 30.86442 -93.60482 25603 ft 349 kts 248°
2026-05-07 15:59 30.85504 -93.63078 25331 ft 347 kts 248°
2026-05-07 16:00 30.84571 -93.65658 25059 ft 345 kts 248°
2026-05-07 16:00 30.83641 -93.68226 24778 ft 344 kts 248°
2026-05-07 16:00 30.82713 -93.70789 24506 ft 343 kts 248°
2026-05-07 16:00 30.81789 -93.73341 24239 ft 342 kts 248°
2026-05-07 16:01 30.80871 -93.75874 24177 ft 339 kts 248°
2026-05-07 16:01 30.79951 -93.78410 24142 ft 342 kts 248°
2026-05-07 16:01 30.79023 -93.80963 24123 ft 345 kts 248°
2026-05-07 16:01 30.78083 -93.83549 24089 ft 345 kts 248°
2026-05-07 16:02 30.77159 -93.86089 24053 ft 345 kts 248°
2026-05-07 16:02 30.76221 -93.88667 23844 ft 346 kts 248°
2026-05-07 16:02 30.75286 -93.91238 23641 ft 344 kts 248°
2026-05-07 16:02 30.74359 -93.93784 23400 ft 341 kts 248°
2026-05-07 16:03 30.73438 -93.96312 23156 ft 338 kts 248°
2026-05-07 16:03 30.72523 -93.98823 22925 ft 336 kts 248°
2026-05-07 16:03 30.71613 -94.01318 22699 ft 335 kts 248°
2026-05-07 16:03 30.70704 -94.03808 22462 ft 333 kts 248°
2026-05-07 16:04 30.69799 -94.06287 22231 ft 332 kts 248°
2026-05-07 16:04 30.68896 -94.08761 22012 ft 331 kts 248°
2026-05-07 16:04 30.67995 -94.11223 21782 ft 331 kts 248°
2026-05-07 16:04 30.67105 -94.13655 21554 ft 330 kts 248°
2026-05-07 16:05 30.66206 -94.16106 21347 ft 330 kts 248°
2026-05-07 16:05 30.65306 -94.18559 21121 ft 330 kts 247°
2026-05-07 16:05 30.64407 -94.21010 20908 ft 329 kts 247°
2026-05-07 16:05 30.63508 -94.23458 20695 ft 330 kts 247°
2026-05-07 16:06 30.62609 -94.25907 20489 ft 330 kts 247°
2026-05-07 16:06 30.61708 -94.28359 20272 ft 330 kts 247°
2026-05-07 16:06 30.60807 -94.30811 20057 ft 330 kts 247°
2026-05-07 16:06 30.59907 -94.33256 19850 ft 330 kts 247°
2026-05-07 16:07 30.59006 -94.35704 19641 ft 329 kts 247°
2026-05-07 16:07 30.58107 -94.38146 19437 ft 329 kts 247°
2026-05-07 16:07 30.57209 -94.40581 19218 ft 328 kts 247°
2026-05-07 16:07 30.56311 -94.43017 19033 ft 327 kts 247°
2026-05-07 16:08 30.55417 -94.45439 18822 ft 326 kts 247°
2026-05-07 16:08 30.54521 -94.47862 18608 ft 325 kts 247°
2026-05-07 16:08 30.53618 -94.50227 18421 ft 324 kts 243°
2026-05-07 16:08 30.52350 -94.52375 18170 ft 323 kts 233°
2026-05-07 16:09 30.50930 -94.54388 17949 ft 322 kts 233°
2026-05-07 16:09 30.49525 -94.56404 17718 ft 321 kts 233°
2026-05-07 16:09 30.48131 -94.58424 17496 ft 321 kts 234°
2026-05-07 16:09 30.46740 -94.60452 17182 ft 323 kts 234°
2026-05-07 16:10 30.45347 -94.62488 16809 ft 321 kts 234°
2026-05-07 16:10 30.43975 -94.64496 16497 ft 314 kts 234°
2026-05-07 16:10 30.42632 -94.66460 16208 ft 308 kts 234°
2026-05-07 16:10 30.41313 -94.68389 15908 ft 302 kts 235°
2026-05-07 16:11 30.40018 -94.70280 15606 ft 296 kts 234°
2026-05-07 16:11 30.38694 -94.72084 15310 ft 292 kts 232°
2026-05-07 16:11 30.37356 -94.73832 15026 ft 287 kts 232°
2026-05-07 16:11 30.36046 -94.75542 14730 ft 281 kts 232°
2026-05-07 16:12 30.34760 -94.77225 14451 ft 277 kts 233°
2026-05-07 16:12 30.33491 -94.78896 14160 ft 274 kts 233°
2026-05-07 16:12 30.32235 -94.80553 13889 ft 273 kts 233°
2026-05-07 16:12 30.30987 -94.82200 13569 ft 272 kts 233°
2026-05-07 16:13 30.29760 -94.83820 13266 ft 270 kts 232°
2026-05-07 16:13 30.28530 -94.85443 12947 ft 266 kts 233°
2026-05-07 16:13 30.27347 -94.87062 12642 ft 261 kts 234°
2026-05-07 16:13 30.26189 -94.88671 12340 ft 260 kts 234°
2026-05-07 16:14 30.25035 -94.90278 12051 ft 259 kts 234°
2026-05-07 16:14 30.23882 -94.91882 11763 ft 259 kts 234°
2026-05-07 16:14 30.22728 -94.93484 11505 ft 258 kts 234°
2026-05-07 16:14 30.21582 -94.95074 11261 ft 256 kts 234°
2026-05-07 16:15 30.20441 -94.96657 11013 ft 256 kts 234°
2026-05-07 16:15 30.19294 -94.98245 10792 ft 259 kts 234°
2026-05-07 16:15 30.18133 -94.99853 10555 ft 263 kts 234°
2026-05-07 16:15 30.16953 -95.01486 10319 ft 264 kts 234°
2026-05-07 16:16 30.15774 -95.03115 10095 ft 264 kts 234°
2026-05-07 16:16 30.14595 -95.04744 9867 ft 265 kts 234°
2026-05-07 16:16 30.13421 -95.06364 9593 ft 259 kts 234°
2026-05-07 16:16 30.12565 -95.08109 9282 ft 245 kts 257°
2026-05-07 16:17 30.12251 -95.09982 9106 ft 238 kts 261°
2026-05-07 16:17 30.11958 -95.11872 9074 ft 241 kts 261°
2026-05-07 16:17 30.11653 -95.13800 9030 ft 246 kts 261°
2026-05-07 16:17 30.11342 -95.15763 8848 ft 251 kts 261°
2026-05-07 16:18 30.11027 -95.17758 8533 ft 253 kts 261°
2026-05-07 16:18 30.10711 -95.19750 8199 ft 250 kts 261°
2026-05-07 16:18 30.10401 -95.21707 7875 ft 246 kts 261°
2026-05-07 16:18 30.10093 -95.23648 7553 ft 244 kts 260°
2026-05-07 16:19 30.09785 -95.25585 7242 ft 246 kts 260°
2026-05-07 16:19 30.09476 -95.27527 7079 ft 243 kts 260°
2026-05-07 16:19 30.09195 -95.29437 7031 ft 242 kts 265°
2026-05-07 16:19 30.09146 -95.31400 7018 ft 247 kts 271°
2026-05-07 16:20 30.09178 -95.33392 6891 ft 248 kts 271°
2026-05-07 16:20 30.09210 -95.35370 6591 ft 245 kts 271°
2026-05-07 16:20 30.09231 -95.37319 6305 ft 240 kts 271°
2026-05-07 16:20 30.09243 -95.39232 6080 ft 235 kts 271°
2026-05-07 16:21 30.09250 -95.41123 6053 ft 236 kts 271°
2026-05-07 16:21 30.09253 -95.43024 5988 ft 236 kts 271°
2026-05-07 16:21 30.09256 -95.44881 5993 ft 233 kts 271°
2026-05-07 16:21 30.09264 -95.46737 5969 ft 228 kts 274°
2026-05-07 16:22 30.09658 -95.48507 6009 ft 233 kts 293°
2026-05-07 16:22 30.10312 -95.50248 6006 ft 238 kts 292°
2026-05-07 16:22 30.10949 -95.52001 5984 ft 235 kts 292°
2026-05-07 16:22 30.11570 -95.53733 5976 ft 232 kts 292°
2026-05-07 16:23 30.12191 -95.55473 5810 ft 238 kts 292°
2026-05-07 16:23 30.12828 -95.57262 5510 ft 241 kts 292°
2026-05-07 16:23 30.13462 -95.59048 5193 ft 238 kts 292°
2026-05-07 16:23 30.14084 -95.60804 4868 ft 235 kts 292°
2026-05-07 16:24 30.14689 -95.62517 4590 ft 231 kts 292°
2026-05-07 16:24 30.15282 -95.64211 4266 ft 225 kts 294°
2026-05-07 16:24 30.15880 -95.65897 3924 ft 222 kts 294°
2026-05-07 16:24 30.16273 -95.67582 3556 ft 218 kts 270°
2026-05-07 16:25 30.15742 -95.69208 3245 ft 221 kts 233°
2026-05-07 16:25 30.14586 -95.70282 3033 ft 211 kts 207°
2026-05-07 16:25 30.13235 -95.70816 2961 ft 201 kts 187°
2026-05-07 16:25 30.11870 -95.70688 2943 ft 196 kts 165°
2026-05-07 16:26 30.10513 -95.70382 2961 ft 202 kts 167°
2026-05-07 16:26 30.09118 -95.70093 2959 ft 205 kts 167°
2026-05-07 16:26 30.07713 -95.69801 2956 ft 204 kts 168°
2026-05-07 16:26 30.06788 -95.69609 2942 ft 204 kts 168°
2026-05-07 16:27 30.05392 -95.69321 2946 ft 203 kts 168°
2026-05-07 16:27 30.04003 -95.69033 2966 ft 203 kts 168°
2026-05-07 16:27 30.02622 -95.68711 2952 ft 200 kts 158°
2026-05-07 16:27 30.01572 -95.67772 2970 ft 189 kts 116°
2026-05-07 16:28 30.01215 -95.66323 2977 ft 189 kts 95°
2026-05-07 16:28 30.01033 -95.64828 2971 ft 192 kts 94°
2026-05-07 16:28 30.00860 -95.63317 2994 ft 187 kts 91°
2026-05-07 16:28 30.00768 -95.61844 3000 ft 185 kts 88°
2026-05-07 16:29 30.00735 -95.60351 3000 ft 188 kts 86°
2026-05-07 16:29 30.00724 -95.58848 2992 ft 186 kts 86°
2026-05-07 16:29 30.00720 -95.57363 2987 ft 185 kts 85°
2026-05-07 16:29 30.00720 -95.55887 2977 ft 182 kts 86°
2026-05-07 16:30 30.00718 -95.54481 2981 ft 167 kts 86°
2026-05-07 16:30 30.00718 -95.53162 2974 ft 162 kts 85°
2026-05-07 16:30 30.00720 -95.51846 2763 ft 164 kts 85°
2026-05-07 16:30 30.00719 -95.50546 2557 ft 159 kts 85°
2026-05-07 16:31 30.00719 -95.49291 2348 ft 154 kts 84°
2026-05-07 16:31 30.00720 -95.48055 2150 ft 155 kts 85°
2026-05-07 16:31 30.00720 -95.46810 1950 ft 156 kts 86°
2026-05-07 16:31 30.00719 -95.45545 1745 ft 159 kts 86°
2026-05-07 16:32 30.00719 -95.44284 1510 ft 155 kts 86°
2026-05-07 16:32 30.00718 -95.43079 1297 ft 144 kts 85°
2026-05-07 16:32 30.00719 -95.41948 1126 ft 142 kts 85°
2026-05-07 16:32 30.00719 -95.40794 952 ft 145 kts 85°
2026-05-07 16:33 30.00719 -95.39619 769 ft 147 kts 85°
2026-05-07 16:33 30.00718 -95.38437 576 ft 146 kts 84°
2026-05-07 16:33 30.00715 -95.37293 391 ft 144 kts 87°
2026-05-07 16:33 30.00718 -95.36129 197 ft 145 kts 90°
2026-05-07 16:34 30.00719 -95.34989 112 ft 133 kts 90°
2026-05-07 16:34 30.00719 -95.34096 112 ft 85 kts 90°
2026-05-07 16:34 30.00719 -95.33648 112 ft 43 kts 90°
2026-05-07 16:34 30.00720 -95.33382 111 ft 22 kts 90°
2026-05-07 16:35 30.00719 -95.33214 111 ft 17 kts 95°
2026-05-07 16:35 30.00659 -95.33158 110 ft 12 kts 174°
2026-05-07 16:35 30.00573 -95.33155 110 ft 13 kts 179°
2026-05-07 16:35 30.00500 -95.33123 110 ft 11 kts 131°
2026-05-07 16:36 30.00462 -95.33052 109 ft 10 kts 123°
2026-05-07 16:36 30.00417 -95.32988 109 ft 10 kts 129°
2026-05-07 16:36 30.00371 -95.32924 109 ft 10 kts 130°
2026-05-07 16:36 30.00325 -95.32861 109 ft 10 kts 130°
2026-05-07 16:37 30.00279 -95.32798 109 ft 10 kts 130°
2026-05-07 16:37 30.00233 -95.32736 109 ft 10 kts 130°
2026-05-07 16:37 30.00186 -95.32672 109 ft 11 kts 130°
2026-05-07 16:37 30.00131 -95.32597 109 ft 13 kts 130°
2026-05-07 16:38 30.00092 -95.32506 111 ft 13 kts 98°
2026-05-07 16:38 30.00090 -95.32402 112 ft 13 kts 90°
2026-05-07 16:38 30.00090 -95.32299 112 ft 13 kts 90°
2026-05-07 16:38 30.00090 -95.32195 112 ft 13 kts 90°
2026-05-07 16:39 30.00090 -95.32091 112 ft 13 kts 90°
2026-05-07 16:39 30.00090 -95.31985 112 ft 13 kts 90°
2026-05-07 16:39 30.00090 -95.31880 112 ft 13 kts 90°
2026-05-07 16:39 30.00090 -95.31774 112 ft 13 kts 90°
2026-05-07 16:40 30.00090 -95.31669 112 ft 13 kts 90°
2026-05-07 16:40 30.00091 -95.31563 112 ft 13 kts 90°
2026-05-07 16:40 30.00091 -95.31483 112 ft 8 kts 90°
2026-05-07 16:40 30.00079 -95.31425 110 ft 8 kts 121°
2026-05-07 16:41 30.00032 -95.31400 110 ft 8 kts 170°
2026-05-07 16:41 29.99977 -95.31397 110 ft 8 kts 179°
2026-05-07 16:41 29.99920 -95.31396 111 ft 8 kts 179°
2026-05-07 16:41 29.99864 -95.31382 110 ft 8 kts 147°
2026-05-07 16:42 29.99843 -95.31322 109 ft 8 kts 95°
2026-05-07 16:42 29.99842 -95.31258 112 ft 5 kts 90°
2026-05-07 16:42 29.99842 -95.31219 112 ft 5 kts 90°
2026-05-07 16:42 29.99841 -95.31174 112 ft 6 kts 90°
2026-05-07 16:43 29.99844 -95.31127 112 ft 6 kts 72°
2026-05-07 16:43 29.99865 -95.31106 111 ft 3 kts 21°
2026-05-07 16:43 29.99883 -95.31105 111 ft 2 kts
2026-05-07 16:43 29.99900 -95.31104 109 ft 2 kts
2026-05-07 16:44 29.99917 -95.31104 110 ft 2 kts
2026-05-07 16:44 29.99927 -95.31104 111 ft 1 kts 360°
2026-05-07 16:44 29.99931 -95.31104 111 ft 0 kts 360°